Regional Weather Roundup
Issued by NWS

Home | Current Version | Previous Version | Text Only | Print | Product List | Glossary On
Versions: 1 2 3 4 5 6 7 8 9 10 11 12 13 14 15 16 17 18 19 20 21 22 23 24 25 26 27 28 29 30 31 32 33 34 35 36 37 38 39 40 41 42 43 44 45 46 47 48 49 50
000
ASUS44 KFWD 192210
RWRTX
NORTH TEXAS HOURLY WEATHER ROUNDUP
NATIONAL WEATHER SERVICE FORT WORTH TX
500 PM CDT SAT MAY 19 2018

NOTE: "FAIR" INDICATES FEW OR NO CLOUDS BELOW 12,000 FEET WITH NO
SIGNIFICANT WEATHER AND/OR OBSTRUCTIONS TO VISIBILITY.

TXZ118-119-192300-
DALLAS/FORT WORTH METROPLEX

CITY           SKY/WX    TMP DP  RH WIND       PRES   REMARKS
DFW AIRPORT    PTSUNNY   90  63  40 S22       29.81F HX  91
DALLAS LOVE    PTSUNNY   93  66  40 S16G28    29.83F HX  96
FTW MEACHAM    FAIR      93  65  39 SE25G35   29.80F HX  95
DAL-EXECUTIVE  FAIR      92  65  40 S15G26    29.83F HX  94
FTW-ALLIANCE   PTSUNNY   90  63  40 S24G35    29.80F HX  91
FTW-NAS-JRB    PTSUNNY   90  63  40 SE18G28   29.80F HX  91
FTW-SPINKS     MOSUNNY   88  64  45 S16G23    29.84F
ARLINGTON      FAIR      90  66  45 SE14G28   29.82F HX  92
GRAND PRAIRIE  SUNNY     90  63  40 SE10G20   29.85S HX  90
ADDISON        MOSUNNY   91  63  38 S20G30    29.84F HX  92
MESQUITE       PTSUNNY   88  64  45 SE12G23   29.86S
LANCASTER      FAIR      90  65  44 S9G23     29.85F HX  92
$$

TXZ091>094-102>105-117-120-121-131>134-192300-
NORTH CENTRAL TEXAS

CITY           SKY/WX    TMP DP  RH WIND       PRES   REMARKS
SHRMAN/DENISON FAIR      89  67  47 SE22      29.83F HX  92
GAINESVILLE    FAIR      85  65  51 SE15G28   29.84F
BOWIE          FAIR      85  67  54 S15       29.83R
BRIDGEPORT     FAIR      89  62  39 S15G23    29.83F
DECATUR        FAIR      87  63  43 S20G28    29.83S
DENTON         FAIR      90  66  45 S20G28    29.81F HX  92
MCKINNEY       FAIR      87  67  51 S14       29.84F HX  90
BONHAM         FAIR      86  67  52 S15       29.86F
GREENVILLE     PTSUNNY   91  64  40 S13G23    29.87F HX  93
ROCKWALL       FAIR      88  67  48 S15G23    29.85F HX  90
TERRELL        FAIR      90  66  45 S16       29.86F HX  92
WAXAHACHIE     PTSUNNY   91  65  43 S15       29.85F HX  92
CLEBURNE       FAIR      88  64  45 S21G28    29.84F
GRANBURY       FAIR      90  62  39 SE14      29.83R HX  90
$$

TXZ083>090-098>101-113>116-127>130-139>142-154-155-192300-
WESTERN NORTH TEXAS

CITY           SKY/WX    TMP DP  RH WIND       PRES   REMARKS
WICHITA FALLS  FAIR      89  64  43 S17       29.80R HX  90
WF-KICKAPOO    FAIR      89  65  44 SE21G26   29.83R HX  91
VERNON         FAIR      92  58  32 S16       29.79S HX  91
ABILENE        FAIR      88  58  36 SE20G30   29.80F
ABILENE-DYESS  FAIR      91  54  28 SE23G29   29.79F
GRAHAM           N/A     90  62  38 SE15G25   29.78F HX  90
BRECKENRIDGE   FAIR      93  58  31 S16G24    29.79S HX  91
CISCO          FAIR      91  61  35 SE18G25   29.82F HX  91
EASTLAND       FAIR      90  62  39 S20G29    29.81F HX  90
RANGER         FAIR      86  64  48 S16G22    29.83F
MINERAL WELLS  FAIR      90  63  40 S21G26    29.80F HX  91
STEPHENVILLE   FAIR      87  65  47 S10G17    29.86F
COMANCHE       PTSUNNY   88  64  45 S17G28    29.83S
BROWNWOOD      FAIR      86  61  42 S14G21    29.83S
COLEMAN        FAIR      90  57  32 S15G23    29.83S
BRADY          FAIR      86  59  39 S14G23    29.83F
$$

TXZ143>147-156>162-174-175-192300-
CENTRAL TEXAS

CITY           SKY/WX    TMP DP  RH WIND       PRES   REMARKS
WACO           FAIR      92  65  40 S16       29.82F HX  94
WACO-TSTC      MOSUNNY   91  63  38 S16       29.84F HX  92
WACO-MCGREGOR  FAIR      91  65  41 SE17G28   29.83F HX  93
HILLSBORO      FAIR      90  66  44 S18G24    29.84F HX  92
CORSICANA      FAIR      90  65  43 S18       29.86F HX  92
MEXIA          FAIR      90  65  43 S14G26    29.85S HX  91
HEARNE         FAIR      90  64  41 S16G22    29.85F HX  91
CAMERON        FAIR      93  62  36 S15G28    29.83F HX  93
TEMPLE         FAIR      91  63  39 SE25G32   29.83F HX  92
KILLEEN        PTSUNNY   89  61  39 SE21G26   29.81F
KILLEEN-SKYLRK FAIR      91  65  41 S18G28    29.83F HX  93
FORT HOOD      CLOUDY    89  62  40 SE20G25   29.79F HX  90
GATESVILLE     FAIR      90  63  40 SE14G22   29.84F HX  90
HAMILTON       FAIR      86  64  47 S17       29.84F
LAMPASAS       FAIR      88  63  43 S15G21    29.82F
$$

TXZ095>097-106>112-122>126-135>138-148>153-164>167-192300-
EAST TEXAS

CITY           SKY/WX    TMP DP  RH WIND       PRES   REMARKS
PARIS          PTSUNNY   89  71  55 S13       29.87F HX  95
SULPHUR SPRNGS FAIR      91  64  41 SW14      29.89F HX  92
MOUNT PLEASANT FAIR      88  69  53 S9        29.89F HX  92
GILMER         FAIR      89  67  48 SE7       29.88F HX  92
MINEOLA        FAIR      90  66  45 S8G17     29.87F HX  92
TYLER          FAIR      92  62  36 S15       29.87F HX  92
LONGVIEW       FAIR      91  69  48 SE10      29.88F HX  96
MARSHALL       FAIR      89  67  48 S9        29.91F HX  91
ATHENS         FAIR      90  64  43 S10       29.85F HX  91
PALESTINE      FAIR      91  66  43 SE10      29.87F HX  94
JACKSONVILLE   FAIR      90  66  45 S12       29.91F HX  92
HENDERSON      FAIR      91  66  43 S8        29.89F HX  94
CENTER         MOCLDY    90  64  41 S12       29.91F HX  91
NACOGDOCHES      N/A     92  68  45 S10G20    29.89F HX  96
LUFKIN         FAIR      90  67  46 SE14      29.89F HX  93
$$

SUPPLEMENTAL OBSERVATIONS (NWS FORT WORTH AREA)

CITY           SKY/WX    TMP DP  RH WIND       PRES   REMARKS
CADDO GRASSLND   N/A     88  66  48 S15         N/A  HX  90
LBJ GRASSLAND    N/A     86  63  45 SE16G26     N/A
POSSUM KINGDOM   N/A     91  63  38 S14G25      N/A  HX  92
GRANBURY         N/A     88  63  42 SE17G28     N/A
MCGREGOR         N/A     90  63  40 S16G26      N/A  HX  90
TEMPLE           N/A     91  63  38 S10G22      N/A  HX  92
PALESTINE        N/A     91  66  43 S10         N/A  HX  94
$$

SUPPLEMENTAL OBSERVATIONS (NWS NORMAN AREA)

CITY           SKY/WX    TMP DP  RH WIND       PRES   REMARKS
GOODLETT         N/A     72  65  77 N8        29.79S
ODELL            N/A     86  62  44 NE10      29.79F
CROWELL          N/A     89  62  40 NE9       29.78S
KNOX CITY        N/A     92  61  35 S17G24    29.77S HX  92
SEYMOUR          N/A     89  62  40 SE10G16   29.80F
MILLERS CREEK    N/A    N/A N/A N/A SE9G17      N/A
$$

SUPPLEMENTAL OBSERVATIONS (NWS SAN ANGELO AREA)

CITY           SKY/WX    TMP DP  RH WIND       PRES   REMARKS
WEINERT          N/A     93  57  29 S21       29.78F HX  91
HASKELL          N/A     91  52  26 S16G23    29.78F
THROCKMORTON     N/A     90  62  39 SE13      29.80F HX  91
STAMFORD         N/A     91  60  35 S17       29.79F HX  90
CLYDE            N/A     88  60  39 S21       29.83F
HAMBY            N/A     91  55  29 S16G26      N/A
$$

SUPPLEMENTAL OBSERVATIONS (NWS SHREVEPORT AREA)

CITY           SKY/WX    TMP DP  RH WIND       PRES   REMARKS
TEXARKANA        N/A     90  68  48 S6          N/A  HX  93
LINDEN           N/A     90  66  45 S6          N/A  HX  92
LUFKIN           N/A     91  68  46 MISG        N/A  HX  95
N SABINE NF      N/A     90  64  43 MISG        N/A  HX  91
$$

SUPPLEMENTAL OBSERVATIONS ARE A COLLECTION OF AUTOMATED INSTRUMENTS
THAT ARE MAINTAINED BY A VARIETY OF FEDERAL AND STATE AGENCIES.
CERTAIN ELEMENTS...SUCH AS HUMIDITY VALUES AND SUSTAINED WIND
SPEEDS...MAY BE APPROXIMATED.





USA.gov is the U.S. government's official web portal to all federal, state and local government web resources and services.